period_start,C,m1,H,J0,J1,J2,J3,J4,J5,JA,JB,JC,JD,JJ,JK,JN,#
2017-05-16 00:03:11,0.02,2.55,0.00,19.26,23.04,26.67,14.72,50.22,1013.20,2045.99,2557.92,2498.06,2810.01,599.84,601.41,47.48,0000 0000 0000 0000 000000
2017-05-16 00:08:13,0.02,2.55,0.00,19.27,23.04,26.63,14.72,50.16,1013.20,2045.98,2557.19,2498.00,2809.93,600.23,601.70,47.54,0000 0000 0000 0000 000000
2017-05-16 00:13:14,0.01,2.55,0.00,19.28,23.04,26.64,14.66,50.21,1013.20,2045.99,2557.00,2497.98,2809.33,599.48,601.11,47.59,0000 0000 0000 0000 000000
2017-05-16 00:18:15,0.04,2.55,0.00,19.27,23.04,26.69,14.71,50.17,1013.20,2045.98,2556.58,2497.42,2809.01,599.93,601.61,47.64,0000 0000 0000 0000 000000
2017-05-16 00:23:16,0.01,2.55,0.00,19.29,23.04,26.63,14.73,50.08,1013.19,2045.99,2556.03,2497.02,2808.96,600.08,601.58,47.69,0000 0000 0000 0000 000000
2017-05-16 00:28:18,0.02,2.55,0.00,19.30,23.04,26.67,14.78,50.42,1013.16,2045.98,2555.84,2496.98,2808.24,600.33,601.83,47.74,0000 0000 0000 0000 000000
2017-05-16 00:33:19,0.02,2.56,0.00,19.33,23.04,26.66,14.68,50.28,1013.20,2045.97,2555.09,2496.70,2808.00,599.61,601.23,47.79,0000 0000 0000 0000 000000
2017-05-16 00:38:20,0.02,2.56,0.00,19.34,23.04,26.75,14.76,50.42,1013.20,2045.98,2554.99,2496.08,2807.97,600.03,601.52,47.84,0000 0000 0000 0000 000000
2017-05-16 00:43:22,0.03,2.56,0.00,19.35,23.04,26.77,14.71,50.31,1013.19,2045.99,2554.47,2496.00,2807.46,599.96,601.46,47.89,0000 0000 0000 0000 000000
2017-05-16 00:48:23,0.01,2.56,0.00,19.38,23.04,26.75,14.73,50.44,1013.12,2045.98,2554.01,2495.99,2807.02,599.93,601.29,47.94,0000 0000 0000 0000 000000
2017-05-16 00:53:24,0.05,2.56,0.00,19.39,23.04,26.80,14.77,50.37,1013.16,2045.97,2553.52,2495.52,2806.89,600.06,601.34,47.99,0000 0000 0000 0000 000000
2017-05-16 00:58:26,0.02,2.56,0.00,19.40,23.05,26.78,14.64,50.14,1013.19,2045.98,2553.01,2495.02,2806.17,599.71,600.94,48.04,0000 0000 0000 0000 000000
2017-05-16 01:03:27,0.01,2.56,0.00,19.38,23.05,26.75,14.69,50.20,1013.18,2045.99,2552.73,2495.00,2805.99,599.93,601.29,48.09,0000 0000 0000 0000 000000
2017-05-16 01:08:28,0.03,2.57,0.00,19.39,23.07,26.78,14.63,50.33,1013.14,2045.98,2552.05,2494.78,2805.72,599.76,601.10,48.14,0000 0000 0000 0000 000000
2017-05-16 01:13:30,0.03,2.57,0.00,19.37,23.07,26.90,14.70,50.27,1013.20,2045.98,2551.81,2494.11,2805.07,599.82,601.08,48.19,0000 0000 0000 0000 000000
2017-05-16 01:18:31,0.01,2.57,0.00,19.38,23.07,26.71,14.69,50.28,1013.20,2045.98,2551.08,2494.00,2804.99,599.81,601.33,48.24,0000 0000 0000 0000 000000
2017-05-16 01:23:32,0.03,2.57,0.00,19.40,23.07,26.73,14.76,50.21,1013.21,2045.98,2550.77,2493.84,2804.34,600.17,601.53,48.29,0000 0000 0000 0000 000000
2017-05-16 01:28:34,0.03,2.57,0.00,19.40,23.08,26.90,14.72,50.27,1013.37,2045.96,2550.07,2493.18,2804.01,600.13,601.58,48.34,0000 0000 0000 0000 000000
2017-05-16 01:33:35,0.00,2.57,0.00,19.39,23.09,26.79,14.69,50.38,1013.43,2045.96,2549.98,2493.00,2803.94,599.90,601.36,48.39,0000 0000 0000 0000 000000
2017-05-16 01:38:36,0.04,2.57,0.00,19.40,23.09,26.73,14.70,50.41,1013.49,2045.98,2549.31,2492.96,2803.29,600.14,601.65,48.44,0000 0000 0000 0000 000000
2017-05-16 01:43:37,0.03,2.58,0.00,19.40,23.09,26.77,14.58,50.27,1013.36,2045.96,2548.98,2492.28,2803.00,599.67,601.00,48.50,0000 0000 0000 0000 000000
2017-05-16 01:48:38,0.03,2.58,0.00,19.41,23.10,26.68,14.72,50.25,1013.21,2045.95,2548.30,2492.00,2802.76,600.18,601.50,48.55,0000 0000 0000 0000 000000
2017-05-16 01:53:40,0.01,2.58,0.00,19.44,23.11,26.64,14.72,50.26,1013.20,2045.93,2548.00,2491.98,2802.07,600.18,601.33,48.60,0000 0000 0000 0000 000000
2017-05-16 01:58:40,0.05,2.58,0.00,19.44,23.12,26.74,14.81,50.41,1013.20,2045.93,2547.43,2491.44,2801.98,600.13,601.36,48.65,0000 0000 0000 0000 000000
2017-05-16 02:03:42,0.01,2.58,0.00,19.45,23.12,26.92,14.72,50.28,1013.19,2045.87,2547.01,2491.01,2801.47,599.94,601.33,48.70,0000 0000 0000 0000 000000
2017-05-16 02:08:43,0.02,2.58,0.00,19.44,23.12,26.90,14.72,50.44,1013.19,2045.77,2546.47,2490.96,2801.01,600.02,601.26,48.75,0000 0000 0000 0000 000000
2017-05-16 02:13:44,0.02,2.58,0.00,19.49,23.13,26.84,14.70,50.42,1013.15,2045.64,2546.00,2490.26,2800.81,599.99,601.15,48.80,0000 0000 0000 0000 000000
2017-05-16 02:18:45,0.01,2.59,0.00,19.50,23.14,26.78,14.69,50.49,1013.18,2045.47,2545.40,2490.00,2800.10,600.02,601.16,48.85,0000 0000 0000 0000 000000
2017-05-16 02:23:47,0.02,2.59,0.00,19.49,23.14,26.81,14.73,50.42,1013.20,2045.45,2544.99,2489.82,2799.99,599.90,601.12,48.90,0000 0000 0000 0000 000000
2017-05-16 02:28:48,0.04,2.59,0.00,19.49,23.15,26.83,14.81,50.31,1013.33,2045.25,2544.42,2489.13,2799.50,600.29,601.51,48.95,0000 0000 0000 0000 000000
2017-05-16 02:33:50,0.02,2.59,0.00,19.50,23.16,26.86,14.74,50.23,1013.51,2045.29,2544.00,2489.00,2799.01,600.03,601.38,49.00,0000 0000 0000 0000 000000
2017-05-16 02:38:51,0.01,2.59,0.00,19.50,23.17,26.89,14.68,50.28,1013.61,2045.21,2543.67,2488.86,2798.81,600.16,601.59,49.05,0000 0000 0000 0000 000000
2017-05-16 02:43:52,0.05,2.59,0.00,19.52,23.17,26.78,14.79,50.36,1013.67,2045.15,2543.02,2488.14,2798.09,600.29,601.61,49.10,0000 0000 0000 0000 000000
2017-05-16 02:48:54,0.01,2.59,0.00,19.54,23.19,26.78,14.76,50.32,1013.69,2045.18,2542.58,2488.00,2797.99,600.10,601.45,49.15,0000 0000 0000 0000 000000
2017-05-16 02:53:55,0.02,2.59,0.00,19.56,23.19,26.83,14.76,50.48,1013.69,2045.16,2542.02,2487.94,2797.69,600.28,601.50,49.20,0000 0000 0000 0000 000000
2017-05-16 02:58:57,0.05,2.60,0.00,19.60,23.20,26.92,14.67,50.15,1013.68,2045.06,2541.46,2487.16,2797.02,599.83,601.03,49.25,0000 0000 0000 0000 000000
2017-05-16 03:03:57,0.01,2.60,0.00,19.64,23.22,26.95,14.71,50.42,1013.67,2045.02,2541.00,2486.99,2796.76,600.17,601.32,49.30,0000 0000 0000 0000 000000
2017-05-16 03:08:59,0.05,2.60,0.00,19.65,23.23,26.99,14.74,50.36,1013.69,2045.02,2540.51,2486.62,2796.05,600.03,601.20,49.35,0000 0000 0000 0000 000000
2017-05-16 03:14:00,0.01,2.60,0.00,19.69,23.24,27.01,14.68,50.37,1013.69,2045.01,2540.02,2486.03,2795.94,599.83,600.89,49.41,0000 0000 0000 0000 000000
2017-05-16 03:19:01,0.02,2.60,0.00,19.72,23.26,27.04,14.79,50.33,1013.69,2045.00,2539.75,2485.99,2795.21,600.59,601.50,49.46,0000 0000 0000 0000 000000
2017-05-16 03:24:02,0.03,2.60,0.00,19.74,23.27,27.10,14.67,50.35,1013.69,2045.00,2539.05,2485.63,2795.00,599.66,600.56,49.51,0000 0000 0000 0000 000000
2017-05-16 03:29:04,0.03,2.61,0.00,19.74,23.29,27.24,14.67,50.21,1013.69,2045.00,2538.72,2485.03,2794.67,599.90,600.79,49.56,0000 0000 0000 0000 000000
2017-05-16 03:34:05,0.02,2.61,0.00,19.76,23.31,27.24,14.71,50.29,1013.69,2045.00,2538.04,2484.95,2794.03,600.12,600.93,49.61,0000 0000 0000 0000 000000
2017-05-16 03:39:06,0.04,2.61,0.00,19.78,23.32,27.27,14.72,50.18,1013.70,2045.00,2537.72,2484.27,2793.86,600.03,600.94,49.66,0000 0000 0000 0000 000000
2017-05-16 03:44:07,0.03,2.61,0.00,19.81,23.34,27.28,14.69,50.23,1013.72,2045.00,2537.03,2484.01,2793.13,599.75,600.52,49.71,0000 0000 0000 0000 000000
2017-05-16 03:49:08,0.01,2.61,0.00,19.84,23.35,27.33,14.66,50.27,1013.72,2044.98,2536.78,2483.89,2792.99,600.04,600.79,49.76,0000 0000 0000 0000 000000
2017-05-16 03:54:10,0.06,2.62,0.00,19.83,23.37,27.30,14.71,50.22,1013.71,2044.98,2536.04,2483.16,2792.40,600.05,600.80,49.81,0000 0000 0000 0000 000000
2017-05-16 03:59:11,0.01,2.62,0.00,19.84,23.38,27.39,14.68,50.28,1013.69,2044.96,2535.79,2482.99,2792.01,599.79,600.39,49.86,0000 0000 0000 0000 000000
2017-05-16 04:04:12,0.05,2.62,0.00,19.86,23.39,27.41,14.66,50.33,1013.69,2044.92,2535.03,2482.40,2791.53,599.86,600.58,49.91,0000 0000 0000 0000 000000
2017-05-16 04:09:14,0.02,2.62,0.00,19.87,23.42,27.41,14.71,50.38,1013.69,2044.67,2534.21,2481.94,2790.83,599.94,600.64,49.96,0000 0000 0000 0000 000000
2017-05-16 04:14:15,0.02,2.62,0.00,19.89,23.43,27.40,14.67,50.31,1013.68,2044.49,2533.70,2481.18,2790.05,599.98,600.70,50.01,0000 0000 0000 0000 000000
2017-05-16 04:19:16,0.05,2.62,0.00,19.91,23.45,27.42,14.74,50.46,1013.68,2044.28,2532.81,2480.59,2789.45,600.27,600.79,50.06,0000 0000 0000 0000 000000
2017-05-16 04:24:17,0.03,2.63,0.00,19.93,23.47,27.45,14.69,50.33,1013.69,2044.12,2531.97,2479.88,2788.46,599.99,600.46,50.11,0000 0000 0000 0000 000000
2017-05-16 04:29:19,0.06,2.63,0.00,19.93,23.48,27.44,14.72,50.25,1013.69,2044.08,2531.08,2479.04,2787.58,600.05,600.58,50.16,0000 0000 0000 0000 000000
2017-05-16 04:34:20,0.05,2.63,0.00,19.96,23.50,27.44,14.71,50.20,1013.69,2044.02,2530.48,2478.32,2787.00,600.26,600.71,50.21,0000 0000 0000 0000 000000
2017-05-16 04:39:21,0.02,2.63,0.00,20.01,23.51,27.41,14.67,50.20,1013.68,2044.01,2529.97,2478.00,2786.33,599.96,600.31,50.26,0000 0000 0000 0000 000000
2017-05-16 04:44:23,0.04,2.64,0.00,20.01,23.52,27.41,14.60,50.09,1013.69,2044.01,2529.26,2477.64,2786.00,599.87,600.28,50.32,0000 0000 0000 0000 000000
2017-05-16 04:49:24,0.03,2.64,0.00,20.03,23.55,27.43,14.69,50.20,1013.69,2044.00,2528.97,2477.03,2785.53,599.90,600.25,50.37,0000 0000 0000 0000 000000
2017-05-16 04:54:25,0.04,2.64,0.00,20.03,23.56,27.53,14.63,50.16,1013.69,2044.00,2528.24,2476.80,2784.99,599.99,600.18,50.42,0000 0000 0000 0000 000000
2017-05-16 04:59:26,0.05,2.64,0.00,20.05,23.57,27.52,14.73,50.36,1013.68,2044.00,2527.82,2476.05,2784.23,599.95,600.20,50.47,0000 0000 0000 0000 000000
2017-05-16 05:04:27,0.02,2.64,0.00,20.08,23.60,27.53,14.75,50.33,1013.65,2043.99,2527.06,2475.81,2783.95,600.31,600.57,50.52,0000 0000 0000 0000 000000
2017-05-16 05:09:28,0.06,2.65,0.00,20.08,23.61,27.51,14.69,50.30,1013.67,2043.98,2526.47,2475.06,2783.22,600.26,600.49,50.57,0000 0000 0000 0000 000000
2017-05-16 05:14:30,0.01,2.65,0.00,20.09,23.62,27.50,14.66,50.17,1013.67,2043.98,2526.00,2474.89,2782.96,599.96,600.20,50.62,0000 0000 0000 0000 000000
2017-05-16 05:19:31,0.06,2.65,0.00,20.11,23.65,27.51,14.66,50.27,1013.68,2043.96,2525.34,2474.13,2782.17,599.68,599.80,50.67,0000 0000 0000 0000 000000
2017-05-16 05:24:33,0.00,2.65,0.00,20.13,23.66,27.50,14.63,50.28,1013.66,2043.95,2524.99,2473.99,2781.97,600.25,600.37,50.72,0000 0000 0000 0000 000000
2017-05-16 05:29:34,0.05,2.65,0.00,20.16,23.67,27.57,14.69,50.24,1013.59,2043.87,2524.22,2473.44,2781.22,600.00,600.04,50.77,0000 0000 0000 0000 000000
2017-05-16 05:34:36,-0.01,2.66,0.00,20.17,23.70,27.57,14.60,50.28,1013.42,2043.70,2523.88,2473.01,2780.97,599.72,599.52,50.82,0000 0000 0000 0000 000000
2017-05-16 05:39:37,0.03,2.66,0.00,20.20,23.71,27.55,14.66,50.33,1013.29,2043.44,2523.08,2472.79,2780.25,600.13,600.03,50.87,0000 0000 0000 0000 000000
2017-05-16 05:44:38,0.01,2.66,0.00,20.23,23.73,27.62,14.64,50.24,1013.25,2043.13,2522.75,2472.09,2779.98,599.70,599.40,50.92,0000 0000 0000 0000 000000
2017-05-16 05:49:39,0.02,2.66,0.00,20.26,23.75,27.67,14.63,50.27,1013.27,2043.07,2522.04,2471.98,2779.42,599.98,599.57,50.97,0000 0000 0000 0000 000000
2017-05-16 05:54:41,0.04,2.66,0.00,20.29,23.77,27.80,14.63,50.21,1013.28,2043.02,2521.64,2471.31,2778.98,599.95,599.52,51.02,0000 0000 0000 0000 000000
2017-05-16 05:59:43,0.03,2.66,0.00,20.28,23.79,27.83,14.58,50.17,1013.24,2043.00,2521.02,2471.00,2778.43,599.94,599.51,51.07,0000 0000 0000 0000 000000
2017-05-16 06:04:44,0.05,2.66,0.00,20.27,23.81,27.80,14.60,50.19,1013.22,2043.00,2520.34,2470.46,2777.98,599.69,599.26,51.12,0000 0000 0000 0000 000000
2017-05-16 06:09:46,0.02,2.67,0.00,20.30,23.83,27.81,14.61,50.30,1013.21,2042.99,2519.95,2470.02,2777.25,599.79,599.34,51.18,0000 0000 0000 0000 000000
2017-05-16 06:14:47,0.03,2.67,0.00,20.32,23.85,27.83,14.67,50.42,1013.21,2042.99,2519.31,2469.84,2776.99,599.92,599.42,51.23,0000 0000 0000 0000 000000
2017-05-16 06:19:48,0.04,2.67,0.00,20.35,23.87,27.79,14.61,50.20,1013.23,2042.98,2518.89,2469.11,2776.53,599.91,599.39,51.28,0000 0000 0000 0000 000000
2017-05-16 06:24:50,0.02,2.67,0.00,20.37,23.89,27.80,14.62,50.21,1013.32,2042.95,2518.10,2468.99,2776.01,599.81,599.26,51.33,0000 0000 0000 0000 000000
2017-05-16 06:29:51,0.05,2.67,0.00,20.40,23.91,27.87,14.72,50.27,1013.47,2042.91,2517.74,2468.42,2775.58,600.11,599.47,51.38,0000 0000 0000 0000 000000
2017-05-16 06:34:52,0.01,2.67,0.00,20.40,23.92,27.86,14.58,50.14,1013.54,2042.67,2517.03,2468.00,2775.02,599.77,599.23,51.43,0000 0000 0000 0000 000000
2017-05-16 06:39:54,0.00,2.67,0.00,20.43,23.95,27.91,14.67,50.18,1013.66,2042.23,2516.45,2467.68,2774.51,600.18,599.68,51.48,0000 0000 0000 0000 000000
2017-05-16 06:44:55,0.01,2.67,0.00,20.45,23.97,27.97,14.59,50.20,1013.65,2042.18,2516.01,2467.09,2774.02,600.06,599.51,51.53,0000 0000 0000 0000 000000
2017-05-16 06:49:56,0.02,2.67,0.00,20.50,23.99,28.03,14.67,50.22,1013.63,2042.06,2515.64,2466.98,2773.79,600.18,599.43,51.58,0000 0000 0000 0000 000000
2017-05-16 06:54:57,0.04,2.68,0.00,20.49,24.01,28.08,14.63,50.13,1013.62,2042.03,2515.01,2466.44,2773.05,599.86,599.37,51.63,0000 0000 0000 0000 000000
2017-05-16 06:59:59,0.03,2.68,0.00,20.50,24.03,28.08,14.65,50.13,1013.65,2042.00,2514.30,2466.01,2772.74,600.24,599.34,51.68,0000 0000 0000 0000 000000
2017-05-16 07:05:00,0.03,2.68,0.00,20.51,24.05,28.13,14.73,50.34,1013.66,2042.00,2513.96,2465.70,2772.05,599.95,599.18,51.73,0000 0000 0000 0000 000000
2017-05-16 07:10:01,0.05,2.68,0.00,20.53,24.07,28.14,14.73,50.23,1013.68,2042.00,2513.13,2465.02,2771.70,600.14,599.43,51.78,0000 0000 0000 0000 000000
2017-05-16 07:15:03,0.02,2.68,0.00,20.52,24.10,28.15,14.60,50.15,1013.63,2041.98,2512.85,2464.90,2771.03,600.11,599.38,51.83,0000 0000 0000 0000 000000
2017-05-16 07:20:04,0.05,2.69,0.00,20.55,24.11,28.16,14.63,50.21,1013.54,2041.95,2512.06,2464.13,2770.75,599.77,598.89,51.88,0000 0000 0000 0000 000000
2017-05-16 07:25:06,0.03,2.69,0.00,20.56,24.12,28.16,14.64,50.15,1013.54,2041.95,2511.65,2464.00,2770.05,600.19,599.31,51.93,0000 0000 0000 0000 000000
2017-05-16 07:30:07,0.04,2.69,0.00,20.58,24.15,28.17,14.69,50.25,1013.63,2041.90,2511.00,2463.43,2769.81,600.06,599.13,51.99,0000 0000 0000 0000 000000
2017-05-16 07:35:08,0.02,2.69,0.00,20.58,24.16,28.15,14.57,50.23,1013.66,2041.82,2510.41,2463.00,2769.08,599.81,599.00,52.04,0000 0000 0000 0000 000000
2017-05-16 07:40:09,-0.01,2.69,0.00,20.60,24.17,28.18,14.62,50.23,1013.69,2041.51,2509.99,2462.72,2768.93,599.68,598.77,52.09,0000 0000 0000 0000 000000
2017-05-16 07:45:11,0.02,2.69,0.00,20.62,24.20,28.21,14.58,50.24,1013.69,2041.19,2509.22,2462.05,2768.15,599.71,598.74,52.14,0000 0000 0000 0000 000000
2017-05-16 07:50:12,0.00,2.69,0.00,20.61,24.21,28.17,14.64,50.33,1013.69,2041.07,2508.92,2461.98,2767.97,600.05,599.19,52.19,0000 0000 0000 0000 000000
2017-05-16 07:55:13,0.06,2.70,0.00,20.61,24.22,28.22,14.64,50.40,1013.69,2041.02,2508.13,2461.25,2767.22,599.72,598.90,52.24,0000 0000 0000 0000 000000
2017-05-16 08:00:14,0.00,2.70,0.00,20.59,24.24,28.20,14.69,50.30,1013.69,2041.01,2507.90,2461.00,2766.99,599.97,599.21,52.29,0000 0000 0000 0000 000000
2017-05-16 08:05:16,0.05,2.70,0.00,20.58,24.25,28.19,14.62,50.12,1013.69,2041.00,2507.11,2460.76,2766.44,599.84,598.98,52.34,0000 0000 0000 0000 000000
2017-05-16 08:10:17,0.04,2.70,0.00,20.57,24.27,28.21,14.64,50.27,1013.69,2041.00,2506.62,2460.07,2766.00,600.00,599.20,52.39,0000 0000 0000 0000 000000
2017-05-16 08:15:18,0.02,2.70,0.00,20.57,24.27,28.17,14.63,50.21,1013.70,2041.00,2506.01,2459.99,2765.59,599.92,599.00,52.44,0000 0000 0000 0000 000000
2017-05-16 08:20:20,0.04,2.70,0.00,20.58,24.29,28.16,14.74,50.23,1013.71,2041.00,2505.68,2459.46,2765.02,600.07,599.24,52.49,0000 0000 0000 0000 000000
2017-05-16 08:25:21,0.02,2.71,0.00,20.58,24.30,28.12,14.60,50.12,1013.70,2041.00,2505.02,2459.01,2764.86,599.72,598.87,52.54,0000 0000 0000 0000 000000
2017-05-16 08:30:23,0.04,2.71,0.00,20.57,24.30,28.04,14.67,50.09,1013.72,2041.00,2504.44,2458.94,2764.12,599.87,599.10,52.59,0000 0000 0000 0000 000000
2017-05-16 08:35:24,0.03,2.71,0.00,20.57,24.31,28.08,14.62,50.00,1013.70,2041.00,2504.00,2458.25,2763.99,600.10,599.21,52.64,0000 0000 0000 0000 000000
2017-05-16 08:40:25,0.03,2.71,0.00,20.56,24.32,28.05,14.68,50.11,1013.71,2040.99,2503.44,2458.00,2763.52,599.98,599.38,52.69,0000 0000 0000 0000 000000
2017-05-16 08:45:26,0.01,2.71,0.00,20.54,24.32,27.98,14.61,50.17,1013.70,2040.99,2503.00,2457.86,2763.01,599.69,598.95,52.74,0000 0000 0000 0000 000000
2017-05-16 08:50:28,0.05,2.72,0.00,20.54,24.32,27.97,14.71,50.23,1013.70,2040.97,2502.35,2457.14,2762.70,600.29,599.69,52.79,0000 0000 0000 0000 000000
2017-05-16 08:55:29,0.01,2.72,0.00,20.56,24.33,27.92,14.74,50.07,1013.72,2040.96,2501.94,2456.99,2762.05,600.54,599.74,52.84,0000 0000 0000 0000 000000
2017-05-16 09:00:30,0.03,2.72,0.00,20.53,24.34,27.88,14.61,50.17,1013.70,2040.97,2501.34,2456.81,2761.99,599.53,598.93,52.89,0000 0000 0000 0000 000000
2017-05-16 09:05:31,0.04,2.72,0.00,20.54,24.35,27.86,14.62,50.23,1013.69,2040.96,2501.01,2456.11,2761.46,600.14,599.34,52.95,0000 0000 0000 0000 000000
2017-05-16 09:10:32,0.02,2.72,0.00,20.56,24.35,27.89,14.65,50.18,1013.69,2040.96,2500.42,2456.00,2761.01,599.69,599.00,53.00,0000 0000 0000 0000 000000
2017-05-16 09:15:34,0.02,2.72,0.00,20.56,24.35,27.86,14.61,50.11,1013.70,2040.96,2499.99,2455.79,2760.87,600.18,599.41,53.05,0000 0000 0000 0000 000000
2017-05-16 09:20:35,0.05,2.73,0.00,20.56,24.36,27.87,14.58,50.02,1013.69,2040.98,2499.38,2455.09,2760.13,599.93,599.22,53.10,0000 0000 0000 0000 000000
2017-05-16 09:25:36,0.00,2.73,0.00,20.60,24.37,27.89,14.65,50.22,1013.69,2040.98,2499.00,2455.00,2760.00,600.05,599.27,53.15,0000 0000 0000 0000 000000
2017-05-16 09:30:38,0.04,2.73,0.00,20.63,24.37,27.86,14.62,50.06,1013.70,2040.95,2498.59,2454.78,2759.60,599.94,598.98,53.20,0000 0000 0000 0000 000000
2017-05-16 09:35:39,0.03,2.73,0.00,20.65,24.37,27.95,14.60,50.03,1013.70,2040.93,2498.01,2454.07,2759.02,599.93,598.89,53.25,0000 0000 0000 0000 000000
2017-05-16 09:40:41,0.01,2.73,0.00,20.67,24.39,28.03,14.50,50.00,1013.73,2040.85,2497.63,2453.99,2758.85,599.80,598.94,53.30,0000 0000 0000 0000 000000
2017-05-16 09:45:42,0.02,2.73,0.00,20.70,24.40,28.21,14.68,49.97,1013.75,2040.70,2497.02,2453.65,2758.11,600.19,599.13,53.35,0000 0000 0000 0000 000000
2017-05-16 09:50:43,0.00,2.73,0.00,20.71,24.40,28.33,14.70,50.02,1013.85,2040.54,2496.88,2453.04,2757.98,600.05,599.10,53.40,0000 0000 0000 0000 000000
2017-05-16 09:55:45,0.01,2.73,0.00,20.69,24.41,28.31,14.68,50.05,1014.06,2040.29,2496.09,2452.99,2757.50,599.93,599.07,53.45,0000 0000 0000 0000 000000
2017-05-16 10:00:46,0.04,2.73,0.00,20.71,24.42,28.34,14.62,49.97,1014.11,2040.30,2495.94,2452.67,2757.01,599.84,599.00,53.50,0000 0000 0000 0000 000000
2017-05-16 10:05:47,0.01,2.74,0.00,20.75,24.42,28.33,14.60,49.87,1014.01,2040.12,2495.14,2452.04,2756.76,599.92,599.11,53.55,0000 0000 0000 0000 000000
2017-05-16 10:10:48,0.02,2.74,0.00,20.75,24.43,28.37,14.65,49.88,1014.11,2040.02,2494.80,2451.90,2756.04,599.80,598.91,53.60,0000 0000 0000 0000 000000
2017-05-16 10:15:50,0.05,2.74,0.00,20.77,24.45,28.36,14.55,49.73,1013.99,2040.02,2494.07,2451.23,2755.91,599.86,598.74,53.65,0000 0000 0000 0000 000000
2017-05-16 10:20:51,0.02,2.74,0.00,20.76,24.45,28.44,14.67,49.92,1013.98,2040.01,2493.76,2451.01,2755.17,599.93,598.92,53.70,0000 0000 0000 0000 000000
2017-05-16 10:25:53,0.02,2.74,0.00,20.76,24.47,28.39,14.67,49.95,1014.11,2040.00,2493.05,2450.82,2754.99,600.26,599.36,53.75,0000 0000 0000 0000 000000
2017-05-16 10:30:54,0.05,2.75,0.00,20.77,24.47,28.39,14.66,49.73,1014.02,2040.00,2492.76,2450.12,2754.45,599.95,598.98,53.80,0000 0000 0000 0000 000000
2017-05-16 10:35:55,0.01,2.75,0.00,20.79,24.48,28.36,14.59,49.77,1013.96,2040.00,2492.04,2450.00,2754.01,599.93,598.96,53.86,0000 0000 0000 0000 000000
2017-05-16 10:40:56,0.03,2.75,0.00,20.80,24.50,28.40,14.62,49.85,1014.02,2040.00,2491.83,2449.72,2753.84,600.02,598.91,53.91,0000 0000 0000 0000 000000
2017-05-16 10:45:57,0.05,2.75,0.00,20.79,24.50,28.45,14.65,49.99,1013.77,2040.00,2491.08,2449.07,2753.12,600.06,598.85,53.96,0000 0000 0000 0000 000000
2017-05-16 10:50:58,0.01,2.75,0.00,20.79,24.52,28.49,14.67,49.88,1013.71,2040.00,2490.65,2448.98,2752.95,600.25,599.05,54.01,0000 0000 0000 0000 000000
2017-05-16 10:56:00,0.06,2.75,0.00,20.80,24.52,28.50,14.62,49.93,1013.69,2040.00,2490.01,2448.34,2752.22,599.89,598.52,54.06,0000 0000 0000 0000 000000
2017-05-16 11:01:01,0.02,2.76,0.00,20.80,24.54,28.49,14.65,50.08,1013.69,2039.99,2489.54,2448.02,2752.00,599.98,598.64,54.11,0000 0000 0000 0000 000000
2017-05-16 11:06:02,0.02,2.76,0.00,20.81,24.55,28.53,14.60,49.86,1013.69,2039.99,2489.00,2447.92,2751.65,599.93,598.68,54.16,0000 0000 0000 0000 000000
2017-05-16 11:11:03,0.06,2.76,0.00,20.84,24.56,28.52,14.66,49.90,1013.69,2039.97,2488.42,2447.18,2751.03,599.88,598.61,54.21,0000 0000 0000 0000 000000
2017-05-16 11:16:04,0.01,2.76,0.00,20.83,24.57,28.48,14.62,49.93,1013.69,2039.98,2488.01,2447.00,2750.99,600.04,598.66,54.26,0000 0000 0000 0000 000000
2017-05-16 11:21:05,0.04,2.76,0.00,20.82,24.57,28.54,14.63,49.83,1013.70,2039.96,2487.66,2446.87,2750.39,600.01,598.74,54.31,0000 0000 0000 0000 000000
2017-05-16 11:26:07,0.04,2.76,0.00,20.82,24.59,28.52,14.72,49.89,1013.77,2039.97,2487.02,2446.14,2750.01,600.13,598.80,54.36,0000 0000 0000 0000 000000
2017-05-16 11:31:08,0.02,2.77,0.00,20.81,24.60,28.50,14.72,49.88,1013.78,2039.94,2486.50,2446.00,2749.85,600.33,599.12,54.41,0000 0000 0000 0000 000000
2017-05-16 11:36:10,0.02,2.77,0.00,20.80,24.60,28.47,14.64,49.85,1013.70,2039.83,2486.00,2445.65,2749.08,599.94,598.55,54.46,0000 0000 0000 0000 000000
2017-05-16 11:41:11,0.01,2.77,0.00,20.82,24.61,28.49,14.63,49.78,1013.70,2039.54,2485.38,2445.03,2748.92,599.95,598.76,54.51,0000 0000 0000 0000 000000
2017-05-16 11:46:12,0.03,2.77,0.00,20.82,24.62,28.52,14.69,49.75,1013.69,2039.56,2485.00,2444.98,2748.27,599.89,598.73,54.56,0000 0000 0000 0000 000000
2017-05-16 11:51:13,0.03,2.77,0.00,20.82,24.62,28.50,14.72,49.97,1013.68,2039.61,2484.39,2444.62,2748.00,600.13,598.80,54.61,0000 0000 0000 0000 000000
2017-05-16 11:56:15,0.03,2.77,0.00,20.80,24.62,28.44,14.70,49.91,1013.69,2039.60,2484.01,2444.06,2747.90,600.43,599.10,54.66,0000 0000 0000 0000 000000
2017-05-16 12:01:16,0.00,2.77,0.00,20.80,24.62,28.49,14.58,49.72,1013.69,2039.38,2483.54,2443.99,2747.14,600.00,598.81,54.72,0000 0000 0000 0000 000000
2017-05-16 12:06:17,0.03,2.77,0.00,20.81,24.63,28.46,14.66,50.02,1013.69,2039.28,2483.01,2443.67,2746.98,599.97,598.80,54.77,0000 0000 0000 0000 000000
2017-05-16 12:11:18,0.03,2.78,0.00,20.80,24.64,28.46,14.67,49.75,1013.69,2039.14,2482.61,2443.05,2746.45,599.65,598.41,54.82,0000 0000 0000 0000 000000
2017-05-16 12:16:19,0.00,2.78,0.00,20.81,24.65,28.51,14.65,49.71,1013.69,2039.14,2482.02,2443.00,2746.01,599.90,598.60,54.87,0000 0000 0000 0000 000000
2017-05-16 12:21:20,0.04,2.78,0.00,20.81,24.65,28.51,14.66,49.87,1013.66,2039.06,2481.68,2442.56,2745.82,600.16,598.84,54.92,0000 0000 0000 0000 000000
2017-05-16 12:26:22,0.04,2.78,0.00,20.82,24.65,28.52,14.67,49.77,1013.67,2039.04,2481.04,2442.02,2745.10,600.16,598.88,54.97,0000 0000 0000 0000 000000
2017-05-16 12:31:23,0.00,2.78,0.00,20.84,24.65,28.51,14.63,49.82,1013.67,2039.04,2480.86,2442.00,2744.98,599.79,598.46,55.02,0000 0000 0000 0000 000000
2017-05-16 12:36:24,0.04,2.78,0.00,20.83,24.65,28.58,14.65,49.83,1013.65,2039.03,2480.09,2441.69,2744.64,600.06,598.64,55.07,0000 0000 0000 0000 000000
2017-05-16 12:41:25,0.03,2.78,0.00,20.80,24.65,28.59,14.68,49.95,1013.48,2039.03,2479.99,2441.10,2744.05,600.17,598.76,55.12,0000 0000 0000 0000 000000
2017-05-16 12:46:26,0.01,2.79,0.00,20.82,24.65,28.61,14.70,49.82,1013.46,2039.01,2479.53,2441.00,2743.97,600.09,598.73,55.17,0000 0000 0000 0000 000000
2017-05-16 12:51:28,0.03,2.79,0.00,20.81,24.65,28.63,14.60,49.77,1013.63,2039.00,2479.01,2440.82,2743.36,599.67,598.41,55.22,0000 0000 0000 0000 000000
2017-05-16 12:56:29,0.04,2.79,0.00,20.79,24.65,28.62,14.64,49.87,1013.66,2039.00,2478.49,2440.11,2743.00,599.87,598.63,55.27,0000 0000 0000 0000 000000